Weather in Vyazemsky

Russia / Khabarovsk Krai     47°32′07″N   134°45′19″E
temp.,
°C
wind,
m/s
gust,
m/s
humid.,
%
clouds,
%
prec.,
mm/h
press.,
hPa
HPBL,
m
9 august, tue
tue901:00+17sw38803 0.0 999150
04:00+16ssw387951 0.0 999172
07:00+16ssw37811 0.0 1000166
10:00+21sw59593 0.0 999825
13:00+25wsw610482 0.0 9982678
16:00+25w610498 0.0 9972177
19:00+21sw266927 0.0 997130
22:00+18ssw410657 0.4 998225
10 august, wed
wed1001:00+19sw4106117 0.0 999316
04:00+15sse34777 0.0 99861
07:00+15sse3108484 0.2 998216
10:00+21ssw6126487 0.3 998908
13:00+23ssw686064 0.1 9981261
16:00+23sw41061100 0.1 996680
19:00+16sw379499 1.9 998205
22:00+14sw36965 1.9 1001145
11 august, thu
thu1101:00+13ssw3494100 0.0 100168
04:00+13ssw2292100 0.0 100146
07:00+14ssw2491100 0.0 100272
10:00+19wsw4670100 0.0 1002625
13:00+18sw4879100 0.2 1002473
16:00+21w4662100 0.2 10021100
19:00+20sw24765 0.0 1002169
22:00+15s21870 0.0 100211
12 august, fri
fri1201:00+14s2188100 0.0 100212
04:00+13se1187100 0.0 100210
07:00+14sse118697 0.0 100313
10:00+20nw117221 0.0 1004527
13:00+22wnw32647 0.0 10031155
16:00+23nw4360100 0.2 10031426
19:00+20nnw23857 0.4 100481
22:00+16se11940 0.4 100611
13 august, sat
sat1301:00+15s11950 0.0 100611
04:00+14sse11960 0.0 100611
07:00+14sse11945 0.0 100719
10:00+20w1175100 0.0 1007563
13:00+23nw33625 0.0 1006977
16:00+24nw325895 0.0 1005926
19:00+21nne11815 0.1 100529
22:00+17se229010 0.2 100715